Location: Unspecified
(58.7730°N, 5.8460°E)
Time: 19:54:22
(UTC+02:00)

Okean 3 - Visible Passes

Search period start: 25 July 2016 00:00
Search period end: 04 August 2016 00:00
Orbit: 579 x 602 km, 82.5° (Epoch: 25 July)

Date Brightness Start Highest point End Pass type
(mag) Time Alt. Az. Time Alt. Az. Time Alt. Az.
25 Jul 5.1 23:14:36 10° NNW 23:18:29 33° W 23:22:21 10° SSW visible
26 Jul 5.5 23:23:18 10° NNW 23:26:51 25° W 23:30:22 10° SW visible
27 Jul 5.9 23:32:06 10° NW 23:35:11 19° W 23:38:14 10° SW visible
28 Jul 6.2 23:41:05 10° NW 23:43:28 15° W 23:45:51 10° WSW visible
29 Jul 6.4 23:50:33 10° WNW 23:51:44 11° WNW 23:52:55 10° W visible
03 Aug 6.3 22:54:46 10° NW 22:57:09 15° W 22:59:30 10° WSW visible
